North Adams, MA

9:25 PM EST on December 09, 2016 (GMT -0500)
Harriman And West

Weather History for KAQW - March, 2014

Change the Weather History Date:

Sunday, March 30, 2014

  Actual Average Record
Temperature  
Mean Temperature 36 °F -  
Max Temperature 41 °F 46 °F 82 °F (1998)
Min Temperature 33 °F 28 °F 14 °F (2008)
Degree Days  
Heating Degree Days 29    
Moisture  
Dew Point 35 °F    
Average Humidity 92    
Maximum Humidity 97    
Minimum Humidity 83    
Precipitation  
Precipitation 0.93 in - - ()
Sea Level Pressure  
Sea Level Pressure 29.71 in    
Wind  
Wind Speed 13 mph (NW)    
Max Wind Speed 32 mph    
Max Gust Speed 44 mph    
Visibility 6 miles    
Events Rain    
Averages and records for this station are not official NWS values.
T = Trace of Precipitation, MM = Missing Value Source: NWS Daily Summary

Daily Weather History Graph

Daily Weather History Graph

Search for Another Location

Airport or City:

Trip Planner

Search our weather history database for the weather conditions in past years. The results will help you decide how hot, cold, wet, or windy it might be!

Date:

Astronomy

Mar. 30, 2014 Rise Set
Actual Time 6:38 AM EDT 7:16 PM EDT
Civil Twilight 6:10 AM EDT 7:44 PM EDT
Nautical Twilight 5:36 AM EDT 8:18 PM EDT
Astronomical Twilight 5:01 AM EDT 8:53 PM EDT
Moon 6:22 AM EDT (3/30) 7:26 PM EDT (3/30)
Length of Visible Light 13h 34m
Length of Day
12h 38m
Waning Crescent, 0% of the Moon is Illuminated
Mar 30
Waning Crescent
Mar 30
New
Apr 7
First Quarter
Apr 15
Full
Apr 22
Last Quarter

Hourly Weather History & Observations

Time (EDT) Temp. Windchill Dew Point Humidity Pressure Visibility Wind Dir Wind Speed Gust Speed Precip Events Conditions
12:52 AM 39.9 °F 28.0 °F 35.1 °F 83% 29.85 in 6.0 mi East 32.2 mph 43.7 mph 0.14 in Rain Rain
1:52 AM 39.9 °F 28.8 °F 35.1 °F 83% 29.82 in 3.0 mi ESE 27.6 mph 40.3 mph 0.17 in Rain Rain
2:52 AM 39.9 °F 29.5 °F 36.0 °F 86% 29.75 in 3.0 mi East 24.2 mph 31.1 mph 0.30 in Rain Heavy Rain
3:52 AM 39.9 °F 30.0 °F 35.1 °F 83% 29.70 in 8.0 mi ESE 21.9 mph 28.8 mph 0.13 in Rain Light Rain
4:52 AM 39.9 °F 31.1 °F 36.0 °F 86% 29.68 in 7.0 mi SE 17.3 mph 27.6 mph 0.00 in   Overcast
5:52 AM 39.9 °F 31.8 °F 35.1 °F 83% 29.67 in 10.0 mi ESE 15.0 mph 27.6 mph 0.00 in Rain Light Rain
6:52 AM 39.9 °F 32.9 °F 36.0 °F 86% 29.68 in 10.0 mi ESE 11.5 mph - 0.00 in   Overcast
7:52 AM 39.9 °F - 36.0 °F 86% 29.70 in 5.0 mi Calm Calm - 0.00 in Rain Light Rain
8:52 AM 39.0 °F 36.8 °F 37.0 °F 93% 29.70 in 4.0 mi NW 3.5 mph - 0.01 in   Overcast
9:21 AM 37.9 °F 35.5 °F 37.0 °F 97% 29.68 in 1.8 mi NW 3.5 mph - 0.01 in Rain Light Rain
9:33 AM 37.9 °F 34.4 °F 37.0 °F 97% 29.68 in 2.0 mi NNW 4.6 mph - 0.01 in Rain Light Rain
9:44 AM 37.9 °F 34.4 °F 37.0 °F 97% 29.68 in 3.0 mi WNW 4.6 mph - 0.01 in Rain Light Rain
9:52 AM 39.0 °F 36.8 °F 37.0 °F 93% 29.70 in 2.5 mi Variable 3.5 mph - 0.02 in Rain Light Rain
10:01 AM 39.0 °F 36.8 °F 37.0 °F 93% 29.68 in 4.0 mi Variable 3.5 mph - 0.00 in   Overcast
10:52 AM 39.0 °F 36.8 °F 37.9 °F 96% 29.70 in 4.0 mi NW 3.5 mph - 0.01 in   Overcast
11:52 AM 39.0 °F 34.0 °F 37.0 °F 93% 29.70 in 5.0 mi NW 6.9 mph - N/A   Overcast
12:05 PM 39.0 °F 34.0 °F 37.0 °F 93% 29.68 in 2.5 mi NW 6.9 mph - N/A   Overcast
12:12 PM 39.0 °F 34.8 °F 37.0 °F 93% 29.68 in 5.0 mi Variable 5.8 mph - N/A   Overcast
12:48 PM 39.2 °F 35.0 °F 37.4 °F 93% 29.68 in 6.0 mi Variable 5.8 mph - N/A   Overcast
12:52 PM 39.9 °F 34.5 °F 37.9 °F 93% 29.70 in 6.0 mi NW 8.1 mph - N/A   Overcast
1:05 PM 39.9 °F 35.8 °F 37.9 °F 93% 29.68 in 2.5 mi Variable 5.8 mph - N/A   Overcast
1:12 PM 39.9 °F 35.8 °F 37.9 °F 93% 29.68 in 2.5 mi WNW 5.8 mph - N/A   Overcast
1:19 PM 39.9 °F 34.5 °F 37.9 °F 93% 29.68 in 3.0 mi NNW 8.1 mph - N/A   Overcast
1:39 PM 39.9 °F 35.1 °F 37.9 °F 93% 29.67 in 4.0 mi Variable 6.9 mph - N/A   Overcast
1:52 PM 39.9 °F 35.1 °F 37.9 °F 93% 29.69 in 8.0 mi Variable 6.9 mph - N/A   Overcast
2:24 PM 39.9 °F 36.7 °F 37.9 °F 93% 29.67 in 2.0 mi Variable 4.6 mph - N/A   Overcast
2:52 PM 39.9 °F 33.9 °F 37.0 °F 89% 29.67 in 2.5 mi NW 9.2 mph 16.1 mph N/A   Overcast
3:48 PM 39.2 °F 34.2 °F 37.4 °F 93% 29.65 in 4.0 mi Variable 6.9 mph - 0.02 in   Overcast
3:52 PM 39.9 °F 35.8 °F 37.9 °F 93% 29.67 in 6.0 mi Variable 5.8 mph - 0.02 in   Overcast
4:52 PM 37.9 °F 32.1 °F 36.0 °F 93% 29.67 in 9.0 mi WNW 8.1 mph - 0.00 in Rain Light Rain
5:52 PM 37.0 °F 30.4 °F 35.1 °F 93% 29.69 in 8.0 mi NW 9.2 mph - 0.00 in   Overcast
6:52 PM 35.1 °F 28.6 °F 33.1 °F 92% 29.69 in 10.0 mi NW 8.1 mph 20.7 mph N/A   Overcast
7:03 PM 35.1 °F 30.1 °F 33.1 °F 92% 29.69 in 10.0 mi Variable 5.8 mph - N/A   Overcast
7:16 PM 35.1 °F 29.3 °F 33.1 °F 92% 29.70 in 10.0 mi NW 6.9 mph - N/A   Overcast
7:36 PM 34.0 °F 26.6 °F 32.0 °F 92% 29.70 in 10.0 mi NW 9.2 mph - N/A   Overcast
7:52 PM 34.0 °F 28.0 °F 32.0 °F 92% 29.73 in 5.0 mi Variable 6.9 mph - N/A   Overcast
8:16 PM 33.1 °F 27.7 °F 32.0 °F 96% 29.73 in 6.0 mi WNW 5.8 mph - N/A   Overcast
8:52 PM 33.1 °F 27.7 °F 32.0 °F 96% 29.75 in 2.5 mi Variable 5.8 mph - 0.06 in Rain Rain
8:59 PM 33.1 °F 25.5 °F 30.9 °F 92% 29.72 in 2.5 mi NNW 9.2 mph - 0.03 in Rain Rain
9:07 PM 33.1 °F 26.1 °F 32.0 °F 96% 29.74 in 3.0 mi WNW 8.1 mph 21.9 mph 0.06 in Rain Rain
9:23 PM 33.1 °F 24.9 °F 32.0 °F 96% 29.73 in 8.0 mi WNW 10.4 mph 18.4 mph 0.06 in Rain Light Rain
9:52 PM 33.1 °F 23.0 °F 30.9 °F 92% 29.74 in 6.0 mi WSW 15.0 mph 19.6 mph 0.07 in Rain Light Rain
10:52 PM 34.0 °F 27.2 °F 32.0 °F 92% 29.76 in 10.0 mi West 8.1 mph - 0.00 in   Overcast
11:01 PM 34.0 °F 27.2 °F 30.9 °F 89% 29.74 in 10.0 mi West 8.1 mph - N/A   Overcast
11:52 PM 33.1 °F 28.7 °F 30.0 °F 89% 29.78 in 10.0 mi Variable 4.6 mph - N/A   Overcast